QPF
0.01 0.00 0.00 0.00 0.00 0.01 0.02 0.01 0.01 0.01 0.01 0.01 0.00 0.00 0.00 0.00 0.00 0.00 0.00 0.01 0.00 0.00 0.00 0.00 0.00 0.00 0.01 0.01 0.01 0.01 0.01 0.02 0.01 0.01 0.02 0.02 0.01 0.02 0.02 0.03 0.03 0.02 0.01 0.01
0.00 0.00 0.00 0.00 0.01 0.01 0.02 0.02 0.02 0.01 0.01 0.01 0.00 0.00 0.00 0.01 0.01 0.01 0.01 0.02 0.02 0.01 0.01 0.00 0.00 0.00 0.00 0.00 0.00 0.01 0.01 0.01 0.00 0.00 0.02 0.03 0.02 0.01 0.01 0.02 0.02 0.02 0.02 0.01
0.00 0.00 0.00 0.00 0.01 0.01 0.02 0.02 0.01 0.01 0.00 0.00 0.00 0.00 0.00 0.01 0.01 0.01 0.01 0.01 0.01 0.01 0.01 0.01 0.00 0.00 0.00 0.00 0.00 0.00 0.00 0.01 0.01 0.01 0.00 0.01 0.00 0.00 0.00 0.01 0.01 0.01 0.02 0.02
0.00 0.00 0.00 0.00 0.00 0.01 0.02 0.02 0.02 0.01 0.00 0.00 0.00 0.00 0.00 0.01 0.01 0.01 0.01 0.01 0.01 0.01 0.01 0.00 0.00 0.00 0.00 0.00 0.00 0.00 0.00 0.00 0.01 0.01 0.01 0.01 0.01 0.01 0.01 0.01 0.02 0.02 0.02 0.02
0.01 0.00 0.00 0.00 0.00 0.01 0.01 0.02 0.02 0.01 0.00 0.00 0.00 0.00 0.00 0.00 0.00 0.01 0.01 0.01 0.01 0.00 0.00 0.00 0.00 0.00 0.00 0.00 0.00 0.00 0.00 0.00 0.01 0.01 0.02 0.02 0.02 0.02 0.02 0.01 0.02 0.02 0.02 0.02
0.00 0.00 0.00 0.00 0.01 0.01 0.01 0.02 0.01 0.01 0.01 0.00 0.00 0.00 0.00 0.00 0.01 0.01 0.01 0.01 0.01 0.00 0.00 0.00 0.00 0.00 0.00 0.01 0.01 0.00 0.00 0.00 0.01 0.01 0.02 0.02 0.02 0.02 0.02 0.01 0.01 0.02 0.02 0.02
0.01 0.00 0.00 0.00 0.00 0.01 0.01 0.01 0.01 0.01 0.01 0.01 0.00 0.00 0.00 0.00 0.00 0.01 0.01 0.02 0.01 0.00 0.00 0.00 0.00 0.00 0.00 0.00 0.01 0.01 0.00 0.00 0.01 0.01 0.01 0.01 0.02 0.01 0.01 0.01 0.01 0.01 0.02 0.02
0.01 0.00 0.00 0.00 0.00 0.00 0.01 0.01 0.01 0.01 0.01 0.00 0.00 0.00 0.00 0.00 0.01 0.01 0.01 0.01 0.01 0.01 0.00 0.00 0.00 0.00 0.00 0.00 0.00 0.01 0.01 0.01 0.02 0.02 0.02 0.02 0.01 0.01 0.01 0.02 0.02 0.03 0.03 0.02
0.00 0.00 0.00 0.00 0.00 0.00 0.01 0.01 0.02 0.02 0.01 0.01 0.01 0.00 0.00 0.00 0.00 0.01 0.01 0.00 0.00 0.01 0.00 0.00 0.00 0.01 0.01 0.01 0.01 0.01 0.01 0.03 0.03 0.03 0.02 0.03 0.03 0.03 0.02 0.03 0.03 0.03 0.03 0.02
0.00 0.00 0.00 0.00 0.00 0.00 0.01 0.02 0.02 0.03 0.03 0.02 0.02 0.01 0.01 0.00 0.01 0.01 0.01 0.01 0.01 0.01 0.01 0.00 0.00 0.00 0.01 0.01 0.01 0.01 0.01 0.02 0.02 0.02 0.03 0.04 0.04 0.04 0.04 0.04 0.04 0.03 0.03 0.03
0.00 0.00 0.00 0.00 0.00 0.00 0.01 0.01 0.02 0.02 0.02 0.02 0.02 0.02 0.01 0.01 0.01 0.01 0.01 0.01 0.01 0.01 0.01 0.01 0.00 0.00 0.00 0.01 0.01 0.01 0.01 0.01 0.01 0.02 0.03 0.04 0.04 0.04 0.04 0.04 0.03 0.03 0.03 0.03
0.01 0.00 0.00 0.00 0.00 0.00 0.00 0.00 0.01 0.01 0.01 0.01 0.01 0.01 0.00 0.00 0.00 0.01 0.01 0.01 0.01 0.01 0.01 0.00 0.00 0.00 0.00 0.00 0.01 0.01 0.01 0.01 0.01 0.01 0.02 0.02 0.02 0.03 0.03 0.03 0.03 0.04 0.03 0.04
0.01 0.01 0.00 0.00 0.01 0.00 0.00 0.00 0.00 0.01 0.01 0.01 0.01 0.01 0.01 0.00 0.00 0.00 0.00 0.01 0.01 0.01 0.01 0.01 0.00 0.00 0.00 0.00 0.00 0.01 0.01 0.01 0.02 0.01 0.01 0.01 0.02 0.02 0.02 0.02 0.03 0.03 0.03 0.03
0.02 0.01 0.00 0.00 0.00 0.00 0.00 0.00 0.00 0.00 0.01 0.01 0.00 0.00 0.00 0.01 0.01 0.01 0.01 0.01 0.01 0.01 0.01 0.01 0.01 0.00 0.00 0.00 0.00 0.00 0.01 0.01 0.02 0.01 0.01 0.01 0.01 0.02 0.02 0.02 0.02 0.02 0.02 0.02
0.01 0.01 0.01 0.00 0.00 0.00 0.00 0.00 0.00 0.00 0.00 0.00 0.00 0.00 0.00 0.00 0.00 0.00 0.01 0.01 0.02 0.02 0.02 0.01 0.01 0.01 0.01 0.00 0.00 0.00 0.00 0.00 0.01 0.01 0.02 0.02 0.02 0.02 0.02 0.02 0.02 0.01 0.01 0.01
0.01 0.01 0.01 0.00 0.00 0.00 0.00 0.00 0.00 0.00 0.00 0.00 0.00 0.00 0.00 0.00 0.00 0.00 0.00 0.00 0.01 0.01 0.02 0.03 0.02 0.01 0.01 0.01 0.00 0.00 0.00 0.00 0.00 0.00 0.01 0.01 0.02 0.02 0.02 0.02 0.02 0.02 0.02 0.02
0.01 0.01 0.01 0.01 0.00 0.00 0.00 0.00 0.00 0.00 0.00 0.00 0.00 0.00 0.00 0.00 0.01 0.00 0.00 0.00 0.00 0.00 0.01 0.02 0.03 0.03 0.02 0.01 0.01 0.00 0.00 0.00 0.00 0.00 0.01 0.01 0.02 0.02 0.02 0.02 0.02 0.02 0.02 0.03
0.01 0.01 0.01 0.01 0.01 0.01 0.00 0.00 0.00 0.00 0.00 0.00 0.01 0.01 0.01 0.00 0.00 0.00 0.00 0.00 0.00 0.00 0.00 0.00 0.01 0.02 0.03 0.02 0.01 0.01 0.00 0.00 0.00 0.00 0.00 0.01 0.01 0.01 0.02 0.02 0.02 0.02 0.02 0.02
0.01 0.01 0.01 0.01 0.01 0.02 0.01 0.01 0.01 0.01 0.01 0.01 0.02 0.01 0.01 0.00 0.00 0.00 0.00 0.00 0.00 0.00 0.00 0.00 0.00 0.00 0.01 0.02 0.02 0.01 0.01 0.00 0.00 0.00 0.00 0.00 0.00 0.00 0.01 0.02 0.01 0.02 0.02 0.01
0.01 0.01 0.01 0.01 0.02 0.02 0.02 0.01 0.01 0.01 0.02 0.01 0.02 0.01 0.00 0.00 0.00 0.00 0.00 0.00 0.00 0.00 0.00 0.00 0.00 0.00 0.00 0.00 0.01 0.02 0.02 0.01 0.01 0.00 0.00 0.00 0.00 0.00 0.00 0.01 0.01 0.01 0.02 0.02
0.02 0.01 0.01 0.01 0.02 0.02 0.01 0.01 0.00 0.01 0.02 0.02 0.02 0.01 0.01 0.00 0.00 0.00 0.00 0.00 0.00 0.00 0.00 0.00 0.00 0.00 0.00 0.00 0.00 0.01 0.01 0.02 0.02 0.01 0.00 0.00 0.00 0.00 0.00 0.00 0.01 0.01 0.01 0.02
0.02 0.02 0.01 0.01 0.01 0.01 0.01 0.00 0.01 0.02 0.01 0.02 0.02 0.01 0.01 0.00 0.00 0.00 0.00 0.00 0.00 0.00 0.00 0.00 0.00 0.00 0.00 0.00 0.01 0.01 0.00 0.00 0.01 0.02 0.01 0.01 0.01 0.00 0.00 0.00 0.00 0.01 0.01 0.01
0.02 0.01 0.01 0.01 0.01 0.01 0.01 0.00 0.00 0.01 0.01 0.02 0.01 0.01 0.00 0.00 0.00 0.00 0.00 0.00 0.00 0.00 0.00 0.00 0.00 0.00 0.00 0.00 0.01 0.01 0.01 0.00 0.01 0.01 0.01 0.01 0.01 0.01 0.01 0.00 0.00 0.01 0.01 0.01
0.00 0.01 0.01 0.02 0.01 0.01 0.01 0.00 0.00 0.00 0.01 0.02 0.01 0.00 0.00 0.00 0.00 0.00 0.00 0.00 0.00 0.00 0.00 0.00 0.01 0.01 0.01 0.01 0.01 0.01 0.01 0.01 0.01 0.01 0.00 0.00 0.01 0.01 0.01 0.01 0.01 0.01 0.00 0.00
0.00 0.00 0.01 0.01 0.01 0.00 0.00 0.00 0.00 0.00 0.01 0.01 0.01 0.00 0.00 0.00 0.00 0.00 0.00 0.00 0.00 0.00 0.00 0.01 0.01 0.01 0.01 0.01 0.01 0.01 0.01 0.01 0.01 0.01 0.01 0.00 0.00 0.00 0.00 0.01 0.01 0.01 0.01 0.01
0.00 0.01 0.01 0.01 0.00 0.00 0.00 0.00 0.00 0.01 0.01 0.01 0.00 0.00 0.00 0.00 0.00 0.00 0.00 0.00 0.00 0.00 0.00 0.00 0.01 0.01 0.01 0.01 0.01 0.01 0.01 0.01 0.01 0.01 0.01 0.00 0.00 0.01 0.01 0.01 0.01 0.01 0.01 0.02
MSLP
1015.24 1016.20 1017.04 1017.74 1018.30 1018.73 1019.05 1019.28 1019.44 1019.54 1019.60 1019.60 1019.56 1019.48 1019.37 1019.25 1019.15 1019.08 1019.06 1019.10 1019.19 1019.32 1019.47 1019.63 1019.77 1019.88 1019.98 1020.06 1020.14 1020.24 1020.36 1020.51 1020.68 1020.86 1021.03 1021.16 1021.26 1021.30 1021.30 1021.26 1021.19 1021.12 1021.06 1021.00
1015.72 1016.51 1017.17 1017.69 1018.11 1018.45 1018.75 1019.03 1019.27 1019.48 1019.62 1019.67 1019.61 1019.45 1019.20 1018.90 1018.62 1018.39 1018.26 1018.25 1018.35 1018.55 1018.80 1019.06 1019.29 1019.47 1019.60 1019.68 1019.74 1019.83 1019.95 1020.13 1020.36 1020.63 1020.90 1021.14 1021.33 1021.43 1021.46 1021.42 1021.34 1021.25 1021.17 1021.12
1015.92 1016.54 1017.01 1017.39 1017.71 1018.01 1018.35 1018.71 1019.09 1019.42 1019.66 1019.75 1019.65 1019.38 1018.96 1018.46 1017.96 1017.55 1017.29 1017.21 1017.32 1017.57 1017.92 1018.28 1018.61 1018.85 1019.01 1019.11 1019.17 1019.25 1019.39 1019.61 1019.93 1020.29 1020.68 1021.04 1021.33 1021.51 1021.57 1021.54 1021.45 1021.33 1021.23 1021.17
1015.93 1016.37 1016.70 1016.95 1017.22 1017.55 1017.97 1018.47 1019.00 1019.47 1019.80 1019.92 1019.77 1019.36 1018.74 1018.01 1017.28 1016.67 1016.26 1016.10 1016.18 1016.48 1016.89 1017.35 1017.76 1018.07 1018.27 1018.38 1018.45 1018.54 1018.71 1018.99 1019.38 1019.86 1020.37 1020.85 1021.24 1021.50 1021.62 1021.60 1021.50 1021.36 1021.23 1021.15
1015.85 1016.14 1016.34 1016.53 1016.79 1017.19 1017.74 1018.40 1019.10 1019.71 1020.13 1020.25 1020.03 1019.47 1018.64 1017.66 1016.69 1015.85 1015.27 1015.01 1015.05 1015.35 1015.82 1016.34 1016.82 1017.19 1017.43 1017.57 1017.65 1017.76 1017.96 1018.30 1018.77 1019.34 1019.97 1020.56 1021.05 1021.39 1021.56 1021.57 1021.48 1021.32 1021.17 1021.07
1015.77 1015.93 1016.04 1016.21 1016.52 1017.03 1017.73 1018.57 1019.43 1020.17 1020.65 1020.76 1020.45 1019.73 1018.69 1017.46 1016.25 1015.19 1014.44 1014.05 1014.03 1014.31 1014.79 1015.35 1015.87 1016.28 1016.56 1016.71 1016.82 1016.95 1017.18 1017.57 1018.11 1018.76 1019.48 1020.17 1020.75 1021.17 1021.39 1021.44 1021.36 1021.21 1021.05 1020.94
1015.72 1015.79 1015.86 1016.06 1016.45 1017.09 1017.95 1018.95 1019.96 1020.80 1021.32 1021.41 1021.00 1020.12 1018.88 1017.43 1015.99 1014.73 1013.81 1013.29 1013.18 1013.41 1013.88 1014.45 1014.98 1015.41 1015.70 1015.88 1016.00 1016.16 1016.42 1016.84 1017.43 1018.15 1018.93 1019.69 1020.35 1020.83 1021.11 1021.21 1021.16 1021.03 1020.88 1020.77
1015.69 1015.71 1015.79 1016.04 1016.54 1017.31 1018.31 1019.46 1020.57 1021.48 1022.02 1022.06 1021.55 1020.54 1019.13 1017.51 1015.88 1014.46 1013.39 1012.75 1012.55 1012.71 1013.13 1013.67 1014.19 1014.62 1014.91 1015.10 1015.24 1015.41 1015.70 1016.14 1016.76 1017.52 1018.35 1019.15 1019.86 1020.40 1020.73 1020.88 1020.88 1020.80 1020.69 1020.61
1015.62 1015.64 1015.77 1016.10 1016.70 1017.59 1018.72 1019.95 1021.13 1022.06 1022.58 1022.56 1021.97 1020.86 1019.34 1017.59 1015.86 1014.33 1013.15 1012.41 1012.12 1012.20 1012.55 1013.03 1013.52 1013.92 1014.20 1014.40 1014.55 1014.74 1015.05 1015.52 1016.16 1016.93 1017.77 1018.60 1019.34 1019.91 1020.30 1020.50 1020.56 1020.53 1020.48 1020.44
1015.45 1015.51 1015.71 1016.13 1016.83 1017.82 1019.01 1020.28 1021.46 1022.37 1022.83 1022.76 1022.11 1020.93 1019.36 1017.58 1015.80 1014.23 1013.01 1012.21 1011.84 1011.85 1012.12 1012.53 1012.95 1013.32 1013.59 1013.78 1013.96 1014.17 1014.51 1014.99 1015.64 1016.41 1017.26 1018.08 1018.83 1019.42 1019.85 1020.10 1020.22 1020.26 1020.26 1020.26
1015.14 1015.27 1015.55 1016.07 1016.84 1017.87 1019.07 1020.31 1021.43 1022.26 1022.65 1022.51 1021.82 1020.64 1019.09 1017.35 1015.63 1014.09 1012.88 1012.07 1011.67 1011.61 1011.80 1012.13 1012.49 1012.82 1013.08 1013.28 1013.48 1013.73 1014.10 1014.61 1015.26 1016.03 1016.85 1017.66 1018.39 1018.98 1019.43 1019.72 1019.89 1019.98 1020.03 1020.08
1014.69 1014.91 1015.29 1015.88 1016.70 1017.71 1018.85 1020.00 1021.00 1021.70 1021.99 1021.79 1021.08 1019.94 1018.48 1016.86 1015.26 1013.84 1012.71 1011.94 1011.53 1011.43 1011.56 1011.82 1012.12 1012.41 1012.67 1012.89 1013.13 1013.43 1013.84 1014.38 1015.04 1015.79 1016.58 1017.36 1018.05 1018.63 1019.07 1019.38 1019.59 1019.72 1019.80 1019.87
1014.18 1014.51 1014.97 1015.61 1016.42 1017.37 1018.40 1019.38 1020.21 1020.74 1020.90 1020.63 1019.93 1018.87 1017.54 1016.10 1014.69 1013.44 1012.44 1011.76 1011.38 1011.27 1011.36 1011.57 1011.83 1012.10 1012.36 1012.62 1012.92 1013.28 1013.75 1014.32 1014.98 1015.72 1016.47 1017.20 1017.85 1018.39 1018.81 1019.11 1019.32 1019.47 1019.57 1019.64
1013.72 1014.15 1014.68 1015.32 1016.09 1016.92 1017.77 1018.55 1019.14 1019.48 1019.49 1019.15 1018.47 1017.50 1016.35 1015.12 1013.94 1012.90 1012.08 1011.52 1011.20 1011.11 1011.18 1011.36 1011.60 1011.87 1012.16 1012.47 1012.84 1013.28 1013.80 1014.41 1015.08 1015.80 1016.51 1017.17 1017.76 1018.24 1018.62 1018.89 1019.09 1019.23 1019.32 1019.37
1013.42 1013.92 1014.49 1015.11 1015.78 1016.45 1017.09 1017.60 1017.95 1018.06 1017.91 1017.50 1016.83 1015.98 1015.01 1014.01 1013.08 1012.27 1011.65 1011.23 1011.00 1010.94 1011.02 1011.19 1011.43 1011.72 1012.05 1012.43 1012.88 1013.39 1013.98 1014.62 1015.30 1015.99 1016.65 1017.24 1017.75 1018.17 1018.49 1018.73 1018.90 1019.01 1019.07 1019.08
1013.33 1013.89 1014.45 1015.01 1015.55 1016.03 1016.41 1016.66 1016.74 1016.62 1016.32 1015.82 1015.18 1014.43 1013.64 1012.87 1012.18 1011.61 1011.18 1010.90 1010.78 1010.77 1010.88 1011.07 1011.33 1011.65 1012.03 1012.48 1013.01 1013.59 1014.24 1014.91 1015.59 1016.25 1016.85 1017.37 1017.80 1018.15 1018.40 1018.59 1018.72 1018.80 1018.83 1018.81
1013.45 1014.02 1014.55 1015.01 1015.39 1015.65 1015.78 1015.76 1015.58 1015.26 1014.80 1014.24 1013.62 1012.98 1012.36 1011.80 1011.33 1010.97 1010.72 1010.59 1010.56 1010.62 1010.77 1010.99 1011.28 1011.65 1012.09 1012.61 1013.21 1013.86 1014.54 1015.24 1015.91 1016.52 1017.06 1017.51 1017.87 1018.14 1018.34 1018.48 1018.57 1018.62 1018.62 1018.56
1013.69 1014.22 1014.67 1015.01 1015.21 1015.26 1015.15 1014.88 1014.48 1013.98 1013.41 1012.81 1012.22 1011.68 1011.21 1010.84 1010.56 1010.39 1010.31 1010.31 1010.38 1010.52 1010.72 1010.98 1011.31 1011.73 1012.23 1012.81 1013.46 1014.15 1014.87 1015.56 1016.21 1016.78 1017.26 1017.64 1017.93 1018.14 1018.29 1018.39 1018.45 1018.48 1018.46 1018.38
1013.88 1014.33 1014.67 1014.86 1014.88 1014.73 1014.42 1013.96 1013.39 1012.77 1012.13 1011.52 1010.98 1010.54 1010.22 1010.01 1009.92 1009.91 1009.98 1010.10 1010.26 1010.47 1010.73 1011.04 1011.42 1011.89 1012.44 1013.06 1013.75 1014.47 1015.19 1015.87 1016.48 1017.00 1017.42 1017.74 1017.97 1018.14 1018.25 1018.33 1018.38 1018.39 1018.36 1018.27
1013.85 1014.18 1014.37 1014.40 1014.26 1013.95 1013.48 1012.89 1012.22 1011.54 1010.89 1010.32 1009.86 1009.54 1009.36 1009.31 1009.37 1009.51 1009.71 1009.95 1010.21 1010.50 1010.82 1011.19 1011.62 1012.13 1012.72 1013.38 1014.08 1014.80 1015.51 1016.16 1016.73 1017.20 1017.57 1017.84 1018.03 1018.16 1018.25 1018.31 1018.36 1018.37 1018.33 1018.23
1013.45 1013.63 1013.66 1013.54 1013.26 1012.82 1012.25 1011.60 1010.90 1010.23 1009.63 1009.14 1008.80 1008.62 1008.58 1008.69 1008.90 1009.19 1009.51 1009.86 1010.23 1010.60 1011.00 1011.43 1011.92 1012.47 1013.08 1013.75 1014.46 1015.16 1015.84 1016.45 1016.97 1017.39 1017.71 1017.95 1018.11 1018.22 1018.30 1018.36 1018.40 1018.41 1018.37 1018.26
1012.64 1012.64 1012.51 1012.25 1011.85 1011.34 1010.73 1010.08 1009.43 1008.83 1008.33 1007.97 1007.77 1007.73 1007.86 1008.11 1008.47 1008.89 1009.35 1009.82 1010.29 1010.76 1011.24 1011.74 1012.28 1012.87 1013.51 1014.18 1014.87 1015.54 1016.18 1016.74 1017.22 1017.60 1017.88 1018.09 1018.24 1018.34 1018.42 1018.48 1018.51 1018.51 1018.46 1018.34
1011.44 1011.26 1010.98 1010.60 1010.13 1009.59 1009.00 1008.40 1007.84 1007.36 1007.00 1006.79 1006.75 1006.87 1007.15 1007.55 1008.05 1008.61 1009.19 1009.78 1010.37 1010.94 1011.51 1012.09 1012.69 1013.32 1013.97 1014.63 1015.30 1015.94 1016.52 1017.04 1017.47 1017.82 1018.08 1018.28 1018.42 1018.52 1018.60 1018.66 1018.68 1018.67 1018.59 1018.44
1009.98 1009.64 1009.23 1008.77 1008.26 1007.72 1007.19 1006.68 1006.25 1005.91 1005.71 1005.66 1005.77 1006.04 1006.46 1007.00 1007.63 1008.31 1009.02 1009.73 1010.43 1011.11 1011.78 1012.44 1013.10 1013.76 1014.42 1015.08 1015.72 1016.32 1016.86 1017.33 1017.73 1018.05 1018.31 1018.50 1018.64 1018.75 1018.84 1018.89 1018.90 1018.86 1018.75 1018.56
1008.42 1007.95 1007.45 1006.94 1006.43 1005.94 1005.49 1005.10 1004.79 1004.61 1004.55 1004.64 1004.89 1005.29 1005.82 1006.47 1007.20 1007.99 1008.81 1009.63 1010.44 1011.23 1011.99 1012.73 1013.45 1014.15 1014.82 1015.47 1016.08 1016.65 1017.15 1017.60 1017.97 1018.29 1018.54 1018.74 1018.90 1019.02 1019.10 1019.14 1019.13 1019.06 1018.91 1018.68
1006.92 1006.37 1005.82 1005.31 1004.83 1004.41 1004.05 1003.78 1003.61 1003.55 1003.62 1003.82 1004.17 1004.66 1005.27 1005.99 1006.80 1007.67 1008.57 1009.48 1010.39 1011.27 1012.12 1012.93 1013.71 1014.44 1015.13 1015.77 1016.36 1016.90 1017.39 1017.81 1018.17 1018.48 1018.75 1018.97 1019.14 1019.28 1019.36 1019.40 1019.36 1019.26 1019.07 1018.80
Thickness
5718 5706 5698 5703 5706 5707 5703 5697 5695 5703 5715 5711 5705 5706 5712 5717 5716 5714 5713 5712 5712 5713 5716 5716 5716 5715 5713 5711 5709 5707 5704 5703 5700 5697 5694 5692 5691 5690 5690 5689 5689 5688 5687 5686
5701 5697 5707 5711 5709 5705 5700 5694 5693 5702 5711 5708 5701 5703 5710 5712 5713 5714 5713 5711 5711 5710 5711 5711 5712 5711 5710 5708 5706 5705 5703 5701 5699 5696 5694 5691 5689 5688 5687 5686 5686 5685 5684 5683
5696 5702 5712 5708 5703 5698 5695 5693 5694 5695 5701 5702 5698 5694 5701 5709 5711 5712 5711 5711 5710 5709 5708 5708 5708 5708 5708 5706 5705 5704 5701 5699 5697 5694 5691 5688 5685 5684 5682 5682 5681 5681 5680 5680
5697 5705 5707 5702 5699 5697 5688 5701 5699 5695 5686 5678 5686 5671 5690 5699 5702 5705 5705 5706 5706 5707 5707 5707 5706 5706 5706 5706 5704 5702 5700 5697 5694 5692 5689 5685 5682 5679 5679 5678 5678 5677 5677 5676
5693 5701 5699 5696 5699 5700 5695 5700 5695 5690 5682 5673 5676 5668 5678 5691 5693 5698 5701 5703 5704 5705 5705 5705 5705 5705 5705 5704 5702 5700 5698 5694 5692 5689 5687 5683 5680 5677 5675 5675 5674 5673 5673 5672
5694 5702 5702 5699 5702 5701 5697 5689 5682 5673 5668 5659 5670 5665 5669 5680 5691 5697 5700 5700 5701 5702 5702 5703 5703 5703 5702 5701 5699 5697 5694 5692 5690 5687 5684 5681 5678 5675 5672 5670 5669 5668 5667 5667
5682 5690 5698 5700 5691 5690 5686 5670 5653 5651 5645 5651 5668 5665 5669 5689 5695 5697 5697 5697 5697 5698 5697 5697 5697 5698 5697 5696 5695 5693 5691 5689 5687 5684 5681 5678 5676 5673 5670 5668 5666 5664 5662 5662
5664 5666 5685 5691 5687 5679 5676 5669 5649 5641 5639 5646 5660 5658 5675 5690 5694 5696 5696 5694 5694 5693 5693 5693 5693 5693 5693 5693 5691 5689 5687 5685 5683 5681 5678 5676 5673 5671 5668 5666 5664 5662 5660 5659
5658 5661 5683 5689 5690 5682 5669 5662 5663 5648 5645 5640 5648 5660 5675 5687 5688 5689 5690 5689 5688 5689 5689 5688 5689 5689 5689 5689 5688 5686 5684 5681 5679 5677 5675 5671 5669 5667 5665 5663 5661 5659 5657 5656
5664 5657 5671 5680 5683 5680 5675 5663 5649 5642 5635 5632 5643 5652 5660 5673 5677 5680 5682 5682 5684 5684 5684 5684 5684 5684 5685 5684 5683 5682 5680 5677 5675 5673 5670 5668 5666 5664 5662 5659 5657 5655 5653 5651
5663 5651 5656 5665 5665 5663 5661 5657 5648 5638 5636 5629 5630 5646 5672 5673 5677 5676 5677 5679 5679 5679 5679 5679 5679 5679 5679 5678 5677 5676 5674 5672 5670 5668 5666 5664 5661 5659 5657 5654 5652 5650 5648 5646
5653 5643 5638 5651 5665 5668 5664 5657 5646 5637 5633 5629 5626 5642 5675 5674 5675 5674 5673 5675 5676 5675 5674 5673 5673 5672 5672 5671 5671 5669 5668 5667 5665 5663 5661 5659 5656 5654 5651 5649 5646 5645 5643 5641
5649 5637 5628 5635 5645 5655 5655 5654 5649 5640 5628 5620 5622 5642 5668 5669 5669 5670 5669 5669 5669 5668 5667 5666 5665 5664 5664 5665 5664 5663 5662 5661 5659 5657 5655 5653 5651 5648 5646 5644 5642 5640 5637 5635
5650 5633 5628 5626 5633 5640 5642 5646 5644 5637 5624 5622 5629 5643 5657 5660 5661 5663 5663 5663 5663 5662 5661 5659 5658 5658 5658 5658 5658 5657 5656 5654 5653 5651 5649 5647 5645 5643 5641 5639 5637 5634 5632 5629
5642 5630 5632 5634 5639 5639 5640 5642 5640 5638 5636 5630 5638 5641 5653 5657 5657 5658 5658 5657 5657 5656 5656 5655 5653 5652 5651 5651 5651 5650 5649 5648 5647 5644 5642 5640 5639 5637 5635 5632 5630 5628 5626 5624
5631 5627 5628 5629 5634 5634 5635 5639 5640 5640 5640 5638 5640 5642 5655 5655 5653 5652 5651 5651 5650 5651 5651 5651 5650 5647 5645 5645 5644 5644 5643 5642 5640 5638 5636 5634 5632 5630 5628 5626 5623 5621 5619 5616
5620 5618 5615 5613 5620 5626 5624 5637 5638 5639 5641 5639 5636 5644 5648 5648 5648 5649 5648 5648 5647 5647 5647 5646 5644 5642 5640 5640 5639 5637 5637 5635 5633 5631 5630 5628 5626 5623 5621 5619 5617 5614 5611 5609
5615 5610 5603 5603 5610 5609 5631 5643 5643 5640 5641 5641 5643 5644 5645 5645 5646 5646 5646 5645 5644 5643 5642 5641 5638 5637 5636 5635 5633 5632 5630 5628 5626 5624 5623 5621 5619 5617 5614 5612 5609 5607 5605 5602
5614 5608 5597 5593 5596 5606 5626 5636 5636 5633 5635 5641 5639 5639 5639 5640 5639 5639 5643 5642 5641 5640 5638 5636 5634 5632 5630 5628 5626 5624 5622 5620 5618 5616 5615 5614 5613 5610 5607 5605 5602 5600 5597 5595
5605 5603 5594 5588 5592 5597 5622 5636 5638 5633 5628 5638 5636 5634 5633 5631 5623 5629 5638 5637 5635 5633 5631 5629 5627 5625 5622 5621 5619 5617 5614 5612 5611 5610 5609 5607 5606 5604 5601 5598 5596 5593 5591 5588
5595 5590 5587 5585 5587 5601 5622 5630 5630 5615 5622 5635 5633 5631 5628 5625 5626 5629 5631 5630 5628 5627 5624 5622 5619 5616 5615 5613 5611 5609 5607 5606 5606 5604 5602 5600 5598 5597 5594 5591 5588 5586 5583 5580
5592 5586 5582 5580 5584 5598 5623 5621 5617 5621 5629 5630 5628 5627 5625 5624 5624 5624 5624 5622 5621 5618 5616 5613 5610 5608 5607 5605 5603 5601 5600 5600 5599 5597 5595 5593 5591 5589 5587 5583 5580 5577 5574 5570
5590 5594 5591 5593 5601 5614 5618 5620 5624 5624 5623 5624 5623 5623 5621 5619 5617 5617 5616 5614 5612 5610 5608 5606 5603 5600 5599 5597 5596 5594 5593 5592 5590 5588 5586 5585 5583 5581 5579 5575 5571 5568 5565 5562
5588 5591 5589 5590 5601 5609 5613 5616 5619 5619 5620 5622 5621 5619 5616 5614 5613 5611 5608 5606 5604 5602 5600 5597 5595 5592 5590 5589 5589 5587 5586 5584 5582 5580 5578 5576 5574 5572 5570 5568 5564 5560 5557 5554
5587 5584 5584 5587 5597 5603 5610 5611 5614 5615 5615 5615 5615 5614 5612 5610 5608 5606 5603 5600 5598 5596 5593 5591 5588 5586 5584 5583 5581 5579 5577 5575 5573 5571 5569 5568 5566 5564 5562 5559 5556 5554 5551 5549
5580 5583 5583 5589 5597 5597 5603 5609 5610 5609 5609 5609 5608 5607 5607 5605 5602 5600 5596 5594 5591 5588 5585 5583 5580 5578 5576 5575 5573 5572 5570 5568 5565 5562 5561 5559 5557 5555 5553 5550 5548 5547 5544 5543